Weather History for Mineola, TX

Change the Weather History Date:

Sunday, September 29, 2013

  Actual Average (KTYR) Record (KTYR)
Temperature  
Mean Temperature 73 °F 72 °F  
Max Temperature 80 °F 83 °F 99 °F (2011)
Min Temperature 66 °F 61 °F 38 °F (1967)
Degree Days  
Heating Degree Days 0 1  
Month to date heating degree days 1  
Since 1 July heating degree days 1  
Cooling Degree Days 8 8  
Month to date cooling degree days 335  
Year to date cooling degree days 2257  
Growing Degree Days 23 (Base 50)    
Moisture  
Dew Point 68 °F    
Average Humidity 92    
Maximum Humidity 100    
Minimum Humidity 61    
Precipitation  
Precipitation 0.00 in 0.10 in 3.04 in (2012)
Month to date precipitation 3.24  
Year to date precipitation 32.50  
Snow  
Snow 0.00 in - - ()
Month to date snowfall  
Since 1 July snowfall  
Since 1 September snowfall  
Snow Depth -    
Sea Level Pressure  
Sea Level Pressure 29.99 in    
Wind  
Wind Speed 4 mph (NW)    
Max Wind Speed 8 mph    
Max Gust Speed -    
Visibility 8 miles    
Events Rain    
T = Trace of Precipitation, MM = Missing Value Source: NWS Daily Summary

Daily Weather History Graph

Daily Weather History Graph

Search for Another Location

Airport:

Trip Planner

Search our weather history database for the weather conditions in past years. The results will help you decide how hot, cold, wet, or windy it might be!

Date:

Astronomy

Sep. 29, 2013 Rise Set
Actual Time 7:14 AM CDT 7:08 PM CDT
Civil Twilight 6:50 AM CDT 7:33 PM CDT
Nautical Twilight 6:21 AM CDT 8:01 PM CDT
Astronomical Twilight 5:53 AM CDT 8:30 PM CDT
Moon 2:11 AM CDT (9/29) 3:52 PM CDT (9/29)
Length of Visible Light 12h 43m
Length of Day
11h 53m
Waning Crescent, 27% of the Moon is Illuminated
Sep 29
Waning Crescent
Oct 4
New
Oct 11
First Quarter
Oct 18
Full
Oct 26
Last Quarter

Hourly Weather History & Observations

Time (CDT) Temp. Heat Index Dew Point Humidity Pressure Visibility Wind Dir Wind Speed Gust Speed Precip Events Conditions
12:15 AM 73.4 °F - 73.4 °F 100% 30.01 in 10.0 mi Calm Calm - N/A   Unknown
12:35 AM 69.8 °F - 69.8 °F 100% 30.02 in 4.0 mi NNW 8.1 mph - N/A   Mist
12:55 AM 68.0 °F - 68.0 °F 100% 30.03 in 5.0 mi NW 8.1 mph - N/A   Mist
1:15 AM 68.0 °F - 68.0 °F 100% 30.03 in 9.0 mi NNW 6.9 mph - N/A   Unknown
1:35 AM 66.2 °F - 66.2 °F 100% 30.03 in 10.0 mi NNW 6.9 mph - N/A   Unknown
1:55 AM 66.2 °F - 66.2 °F 100% 30.02 in 9.0 mi NNW 5.8 mph - N/A   Overcast
2:15 AM 66.2 °F - 66.2 °F 100% 30.02 in 9.0 mi NNW 5.8 mph - N/A   Overcast
2:35 AM 66.2 °F - 66.2 °F 100% 30.02 in 10.0 mi NNW 4.6 mph - N/A   Overcast
2:55 AM 66.2 °F - 66.2 °F 100% 30.02 in 10.0 mi NW 3.5 mph - N/A   Overcast
3:15 AM 68.0 °F - 68.0 °F 100% 30.01 in 10.0 mi NNW 4.6 mph - N/A   Overcast
3:35 AM 66.2 °F - 66.2 °F 100% 30.01 in 8.0 mi NNW 5.8 mph - N/A   Overcast
3:55 AM 68.0 °F - 68.0 °F 100% 30.01 in 2.5 mi Calm Calm - N/A Rain Rain
4:15 AM 66.2 °F - 66.2 °F 100% 30.01 in 2.5 mi NW 4.6 mph - N/A   Overcast
4:35 AM 66.2 °F - 66.2 °F 100% 30.00 in 1.8 mi NW 4.6 mph - N/A   Overcast
4:55 AM 66.2 °F - 66.2 °F 100% 30.01 in 5.0 mi NW 3.5 mph - N/A   Overcast
5:15 AM 66.2 °F - 66.2 °F 100% 30.00 in 10.0 mi NNW 4.6 mph - N/A   Overcast
5:35 AM 66.2 °F - 66.2 °F 100% 30.01 in 10.0 mi NW 4.6 mph - N/A   Overcast
5:55 AM 66.2 °F - 66.2 °F 100% 30.01 in 10.0 mi Calm Calm - N/A   Overcast
6:15 AM 66.2 °F - 66.2 °F 100% 30.02 in 10.0 mi WNW 3.5 mph - N/A   Overcast
6:35 AM 66.2 °F - 66.2 °F 100% 30.02 in 10.0 mi NNW 3.5 mph - N/A   Overcast
6:55 AM 66.2 °F - 66.2 °F 100% 30.02 in 3.0 mi Calm Calm - N/A   Overcast
7:15 AM 66.2 °F - 66.2 °F 100% 30.02 in 7.0 mi NW 4.6 mph - N/A Rain Light Rain
7:35 AM 66.2 °F - 66.2 °F 100% 30.02 in 8.0 mi Calm Calm - N/A   Overcast
7:55 AM 66.2 °F - 66.2 °F 100% 30.02 in 9.0 mi NW 3.5 mph - N/A   Overcast
8:15 AM 66.2 °F - 66.2 °F 100% 30.02 in 10.0 mi NNW 3.5 mph - N/A   Overcast
8:35 AM 66.2 °F - 66.2 °F 100% 30.02 in 9.0 mi NW 3.5 mph - N/A   Overcast
8:55 AM 66.2 °F - 66.2 °F 100% 30.03 in 6.0 mi NW 4.6 mph - N/A   Overcast
9:15 AM 66.2 °F - 66.2 °F 100% 30.03 in 6.0 mi NW 6.9 mph - N/A   Overcast
9:35 AM 66.2 °F - 66.2 °F 100% 30.03 in 6.0 mi NNW 5.8 mph - N/A   Overcast
9:55 AM 66.2 °F - 66.2 °F 100% 30.03 in 7.0 mi NW 5.8 mph - N/A   Overcast
10:15 AM 66.2 °F - 66.2 °F 100% 30.03 in 6.0 mi NNW 6.9 mph - N/A   Overcast
10:35 AM 66.2 °F - 66.2 °F 100% 30.03 in 5.0 mi NW 4.6 mph - N/A   Mist
10:55 AM 68.0 °F - 66.2 °F 94% 30.04 in 6.0 mi NW 5.8 mph - N/A   Mist
11:15 AM 68.0 °F - 66.2 °F 94% 30.04 in 5.0 mi NNW 6.9 mph - N/A   Mist
11:35 AM 68.0 °F - 66.2 °F 94% 30.04 in 5.0 mi NW 5.8 mph - N/A   Overcast
11:55 AM 68.0 °F - 66.2 °F 94% 30.04 in 5.0 mi NNW 6.9 mph - N/A   Overcast
12:15 PM 69.8 °F - 66.2 °F 88% 30.03 in 7.0 mi NW 8.1 mph - N/A   Unknown
12:35 PM 69.8 °F - 68.0 °F 94% 30.02 in 8.0 mi NNW 6.9 mph - N/A   Unknown
12:55 PM 71.6 °F - 66.2 °F 83% 30.02 in 9.0 mi North 5.8 mph - N/A   Overcast
1:15 PM 71.6 °F - 66.2 °F 83% 30.02 in 9.0 mi NNW 5.8 mph - N/A   Overcast
1:35 PM 71.6 °F - 66.2 °F 83% 30.00 in 9.0 mi Calm Calm - N/A   Overcast
1:55 PM 71.6 °F - 68.0 °F 88% 29.99 in 10.0 mi Calm Calm - N/A   Overcast
2:15 PM 75.2 °F - 68.0 °F 78% 29.98 in 10.0 mi Calm Calm - N/A   Overcast
2:35 PM 75.2 °F - 69.8 °F 83% 29.97 in 10.0 mi Calm Calm - N/A   Mostly Cloudy
2:55 PM 75.2 °F - 69.8 °F 83% 29.96 in 10.0 mi Calm Calm - N/A   Mostly Cloudy
3:15 PM 77.0 °F - 69.8 °F 78% 29.95 in 10.0 mi Calm Calm - N/A   Mostly Cloudy
3:35 PM 78.8 °F - 69.8 °F 74% 29.94 in 10.0 mi Calm Calm - N/A   Scattered Clouds
3:55 PM 78.8 °F - 69.8 °F 74% 29.94 in 10.0 mi NW 4.6 mph - N/A   Partly Cloudy
4:15 PM 80.6 °F 83.2 °F 68.0 °F 65% 29.94 in 10.0 mi NW 5.8 mph - N/A   Clear
4:35 PM 80.6 °F 82.7 °F 66.2 °F 61% 29.94 in 10.0 mi Calm Calm - N/A   Clear
4:55 PM 78.8 °F - 68.0 °F 69% 29.93 in 10.0 mi Calm Calm - N/A   Clear
5:15 PM 80.6 °F 83.9 °F 69.8 °F 70% 29.92 in 10.0 mi Calm Calm - N/A   Clear
5:35 PM 80.6 °F 83.2 °F 68.0 °F 65% 29.92 in 10.0 mi Calm Calm - N/A   Clear
5:55 PM 80.6 °F 83.2 °F 68.0 °F 65% 29.92 in 10.0 mi Calm Calm - N/A   Clear
6:15 PM 78.8 °F - 68.0 °F 69% 29.92 in 10.0 mi Calm Calm - N/A   Clear
6:35 PM 78.8 °F - 69.8 °F 74% 29.92 in 10.0 mi Calm Calm - N/A   Clear
6:55 PM 75.2 °F - 69.8 °F 83% 29.92 in 10.0 mi Calm Calm - N/A   Clear
7:15 PM 73.4 °F - 71.6 °F 94% 29.92 in 10.0 mi Calm Calm - N/A   Clear
7:35 PM 73.4 °F - 69.8 °F 88% 29.92 in 10.0 mi Calm Calm - N/A   Clear
7:55 PM 73.4 °F - 69.8 °F 88% 29.93 in 10.0 mi Calm Calm - N/A   Clear
8:15 PM 71.6 °F - 69.8 °F 94% 29.93 in 10.0 mi Calm Calm - N/A   Clear
8:35 PM 71.6 °F - 69.8 °F 94% 29.93 in 10.0 mi Calm Calm - N/A   Clear
8:55 PM 71.6 °F - 69.8 °F 94% 29.93 in 10.0 mi Calm Calm - N/A   Clear
9:15 PM 69.8 °F - 69.8 °F 100% 29.94 in 8.0 mi Calm Calm - N/A   Clear
9:35 PM 69.8 °F - 69.8 °F 100% 29.94 in 9.0 mi Calm Calm - N/A   Clear
9:55 PM 69.8 °F - 69.8 °F 100% 29.94 in 8.0 mi Calm Calm - N/A   Clear
10:15 PM 69.8 °F - 69.8 °F 100% 29.94 in 8.0 mi Calm Calm - N/A   Clear
10:35 PM 69.8 °F - 69.8 °F 100% 29.94 in 8.0 mi Calm Calm - N/A   Clear
10:55 PM 69.8 °F - 69.8 °F 100% 29.94 in 10.0 mi Calm Calm - N/A   Clear
11:15 PM 71.6 °F - 69.8 °F 94% 29.94 in 10.0 mi SSW 3.5 mph - N/A   Clear
11:35 PM 71.6 °F - 69.8 °F 94% 29.94 in 10.0 mi SW 3.5 mph - N/A   Clear
11:55 PM 71.6 °F - 69.8 °F 94% 29.94 in 10.0 mi SW 3.5 mph - N/A   Clear